Location: Recife
(8.0585°S, 34.8848°W)
Time: 14:22:57
(UTC-03:00)

Tiros 1 despin weight - Pass Details

Date: 15 April 2026
Orbit: 555 x 591 km, 48.2° (Epoch: 14 May)

Event Time Altitude Azimuth Distance (km) Brightness Sun altitude
Rises 13:08:06 0° 239° (WSW) 2,729 ? 57.5°
Reaches altitude 10° 13:10:38 10° 252° (WSW) 1,831 ? 57.0°
Maximum altitude 13:14:07 26° 308° (NW) 1,120 ? 56.3°
Drops below altitude 10° 13:17:36 10° 5° (N) 1,827 ? 55.5°
Sets 13:20:07 0° 18° (NNE) 2,722 ? 55.0°
